sat.trackr.live / text

‹ back to catalog

APRIZESAT 1

NORAD 28372 · 2004-025G

PAYLOAD ACTIVE UNKNOWN

§ Identity

Operator
Country
US
Launch date
2004-06-29
Launch site
TYMSC
Launch vehicle
Mass (kg)
RCS (m²)
0.06

External: N2YO · Heavens-Above · Gunter

§ Orbital elements

Epoch: 2026-05-24T23:58:44.895936Z

Period
99.19 min
Inclination
98.6309°
Eccentricity
0.0043722
Mean motion
14.51763906 rev/d
Perigee alt
688.9 km
Apogee alt
750.9 km
Semi-major
7,098.0 km
B*
5.5524e-5
RAAN
155.0931°
Arg perigee
224.6179°
Mean anomaly
135.1493°
Rev number
15,854

§ Raw data

APRIZESAT 11 28372U 04025G   26144.99913074  .00000176  00000+0  55524-4 0  99902 28372  98.6309 155.0931 0043722 224.6179 135.1493 14.51763906158543

JSON: /api/v1/satellites/28372 · /tle

For live sub-satellite position, see the globe view (requires WebGL).

§ Visibility from observer

Set your observer location to see the next 7 days of passes ≥ 10°. The values pass through the URL so the page stays shareable.

No JS? Fill the form by hand. The geolocation button needs JavaScript.